Location: Boiro
(42.6475°N, 8.8834°W)
Time: 19:04:40
(UTC+01:00)

Tiros 1 despin weight - Pass Details

Date: 03 December 2021
Orbit: 592 x 641 km, 48.2° (Epoch: 27 January)

Event Time Altitude Azimuth Distance (km) Brightness Sun altitude
Rises 14:22:05 0° 220° (SW) 2,833 ? 23.9°
Reaches altitude 10° 14:24:27 10° 213° (SSW) 1,927 ? 23.8°
Maximum altitude 14:28:36 41° 144° (SE) 868 ? 23.6°
Drops below altitude 10° 14:32:44 10° 74° (ENE) 1,922 ? 23.3°
Sets 14:35:06 0° 67° (ENE) 2,825 ? 23.2°
